Wind_Speed
18 18 19 19 20 20 20 19 19 18 18 18 18 19 20 19 19 19 20 21 22 22 22 22 22 23 23 23 23 23 23 24 24 25 25 25 26 26 26 28 28 26 27
19 19 19 20 19 20 19 19 18 18 19 19 19 19 19 19 19 20 20 21 22 22 22 21 22 22 22 22 22 23 23 23 23 24 25 25 25 25 26 26 26 26 26
20 19 19 19 19 19 19 19 19 18 19 19 19 19 19 20 20 20 21 21 22 21 22 22 22 23 23 23 24 24 24 24 24 24 25 25 24 23 25 25 25 26 26
20 19 19 19 19 19 18 19 19 19 19 19 19 19 20 20 20 21 21 22 22 23 23 23 23 24 24 25 25 24 24 25 25 25 25 25 25 26 26 26 26 27 28
20 20 19 19 19 18 18 19 19 19 19 19 19 20 20 21 21 21 22 22 23 23 23 22 23 24 24 24 24 24 25 25 25 25 25 26 26 27 27 27 28 28 27
19 19 19 19 18 18 19 20 19 19 19 19 20 20 20 21 21 21 22 22 22 22 23 23 23 23 23 23 23 24 25 26 25 25 25 25 26 27 28 28 27 28 28
19 19 19 18 18 19 19 20 20 19 19 19 19 20 21 21 22 22 22 23 22 23 23 23 23 23 23 24 24 24 24 24 25 25 25 26 26 26 27 27 27 27 28
19 20 19 19 19 19 20 21 20 19 19 19 20 20 21 21 22 22 22 22 22 24 24 24 23 23 24 24 24 24 24 24 25 26 26 26 26 25 26 26 27 28 28
20 20 20 20 19 19 20 20 20 20 19 19 20 21 21 21 21 21 21 22 23 23 23 23 23 23 23 23 24 24 24 25 25 26 27 27 27 27 26 26 26 27 28
19 19 19 20 19 19 19 20 21 21 21 20 21 21 22 21 21 21 22 22 22 22 21 22 22 22 22 22 22 23 24 24 24 25 26 27 27 27 27 27 26 26 27
19 19 20 20 20 20 20 20 21 22 22 21 21 21 21 21 21 22 22 22 22 21 21 21 21 21 21 22 22 22 22 23 23 24 24 26 26 27 27 27 26 26 27
18 19 20 20 20 20 20 21 21 21 22 22 22 21 21 21 22 22 21 21 20 20 21 21 21 20 21 21 21 21 21 20 21 21 22 23 24 25 26 27 27 27 28
19 19 20 21 21 21 21 21 21 22 23 23 22 21 22 22 22 21 20 20 20 20 21 21 20 20 20 21 21 20 19 19 19 19 20 21 23 24 25 26 27 27 28
19 19 20 21 22 22 21 21 22 21 22 22 21 20 20 21 21 20 19 19 19 20 20 20 20 20 20 20 20 19 18 18 19 19 19 20 21 22 23 24 25 26 26
19 19 20 21 21 21 21 21 21 21 21 21 20 20 20 21 20 19 18 18 18 19 20 20 20 19 20 20 20 20 19 19 19 19 19 19 20 21 22 23 24 25 25
19 19 20 20 21 21 21 20 20 20 21 20 19 20 20 20 19 19 18 18 19 19 19 19 20 20 20 20 20 19 19 19 19 18 18 19 20 21 22 24 24 25 25
19 19 20 20 20 20 20 20 20 20 20 19 19 20 20 20 19 19 19 19 19 19 19 20 21 22 21 20 19 18 18 18 18 18 18 18 19 21 22 23 23 24 24
19 20 20 21 20 20 20 20 20 21 20 19 20 20 20 20 20 20 20 19 19 19 19 20 21 21 21 19 18 18 18 19 19 18 19 19 19 19 20 21 22 22 23
19 19 20 20 20 20 20 20 20 21 20 19 19 20 20 20 20 21 20 19 19 20 20 21 21 21 20 19 18 18 18 19 19 18 19 20 20 20 21 21 22 22 22
19 19 20 20 20 20 20 20 21 21 20 19 19 20 20 20 21 21 20 20 21 20 21 21 20 20 20 19 19 19 19 19 19 19 20 20 20 21 21 21 21 21 22
19 20 20 20 21 21 21 21 21 21 20 20 19 20 20 20 21 21 21 21 21 21 21 21 20 19 20 20 20 19 20 19 20 20 20 19 19 20 20 20 20 20 20
19 20 20 21 21 21 21 21 21 20 20 20 20 21 20 20 21 21 21 22 21 21 21 21 21 21 21 20 20 19 19 19 19 20 19 19 19 19 19 19 19 19 19
21 21 22 22 21 21 21 21 21 21 21 21 21 21 21 20 21 21 21 21 21 21 22 21 21 20 20 19 19 19 19 19 20 20 19 19 18 18 19 18 18 18 19
23 23 23 22 22 21 22 22 21 21 21 22 21 21 21 21 21 22 21 21 22 21 21 21 21 20 20 19 19 20 20 20 20 20 19 19 18 18 18 19 19 20 20
24 24 23 22 22 22 22 22 22 22 22 22 22 21 21 21 21 22 21 21 22 22 21 21 21 20 20 20 21 21 21 21 21 21 20 20 19 19 19 19 19 20 20
25 24 23 23 23 22 22 22 22 22 22 22 22 22 22 22 21 22 22 22 22 22 21 21 20 20 21 21 22 22 22 21 21 21 21 21 21 20 20 20 20 21 21
Wind_Direction
316 317 318 318 316 314 315 313 314 314 313 309 307 301 300 301 300 298 294 293 294 293 293 290 287 286 282 280 279 278 276 273 268 265 264 264 264 261 262 261 259 258 258
327 325 322 321 321 319 317 317 316 315 313 310 309 305 302 301 301 300 297 295 294 294 293 291 290 289 285 282 282 281 278 275 271 267 265 265 262 261 261 260 257 256 257
326 325 324 323 323 321 321 322 320 317 313 309 307 307 303 302 302 302 299 297 296 294 291 290 290 289 285 283 283 281 278 275 271 268 266 264 261 260 262 264 261 259 258
325 325 324 324 325 325 323 324 323 319 315 312 309 307 305 303 301 302 302 300 296 294 292 291 290 289 286 285 283 280 278 276 272 270 268 265 263 261 263 264 264 262 259
325 326 325 324 324 324 324 325 324 321 318 315 312 307 304 304 301 301 301 301 299 296 294 292 292 291 289 286 283 280 277 275 272 270 268 265 264 263 262 262 263 262 260
323 326 325 324 324 325 325 326 325 321 318 316 313 308 306 306 304 303 303 303 302 300 298 296 294 292 290 288 286 282 278 274 270 269 268 267 267 265 263 262 262 261 261
320 325 325 326 325 324 325 325 322 320 319 317 314 312 310 309 308 307 306 305 303 302 300 297 296 293 292 289 286 282 279 275 270 268 267 267 267 265 263 262 261 260 260
322 325 325 325 324 325 325 326 326 324 323 321 318 317 314 312 311 310 309 308 307 305 302 300 297 294 292 289 287 283 279 275 272 268 267 266 266 265 265 264 263 261 260
322 324 324 324 324 325 326 327 327 326 325 324 322 320 319 316 313 312 311 309 308 307 304 302 299 297 294 290 288 284 280 276 274 271 268 266 264 265 267 266 264 262 262
321 322 323 324 325 325 325 325 325 324 323 323 323 322 320 317 313 311 311 311 309 308 306 304 302 300 298 296 294 289 284 279 277 272 269 266 264 264 265 266 265 264 263
319 320 322 325 325 324 324 325 324 324 325 323 321 321 320 319 317 314 311 310 311 310 307 305 305 304 304 301 298 294 287 283 279 275 271 266 265 265 266 265 265 265 265
318 320 322 325 325 324 324 324 325 326 326 325 323 322 321 320 320 318 315 314 313 311 311 310 309 308 308 307 304 299 293 287 282 277 273 270 267 267 267 266 267 268 267
317 319 322 324 324 324 323 324 325 325 324 323 323 322 322 322 321 321 319 318 316 317 317 316 313 310 311 312 309 304 298 290 286 282 278 274 271 269 269 269 270 270 270
315 317 319 322 324 325 324 325 327 327 327 327 327 326 325 325 325 325 323 322 320 319 318 317 316 314 313 314 312 309 304 298 292 288 284 279 275 273 273 273 273 272 271
313 315 318 321 324 327 328 327 327 329 330 330 330 329 329 328 328 328 326 325 323 321 320 319 319 318 315 313 311 310 305 301 298 294 290 284 278 276 277 277 275 273 273
313 317 319 321 324 327 329 330 330 330 331 332 332 331 331 330 329 329 326 324 324 324 323 323 323 321 319 316 311 309 307 303 301 299 294 290 283 280 280 279 277 275 276
315 317 317 320 322 325 328 330 331 332 333 332 331 330 330 330 330 330 327 324 325 326 325 325 324 323 321 318 315 310 308 304 303 299 297 295 291 287 285 282 279 277 276
314 316 318 319 320 323 326 328 329 330 329 329 329 330 330 330 330 329 327 325 324 325 324 324 325 325 324 319 315 312 310 308 304 300 296 296 295 293 290 287 282 280 280
314 316 316 318 318 319 323 326 326 327 326 326 328 330 330 330 328 327 326 325 324 325 323 323 324 323 323 321 318 315 312 311 308 304 299 298 299 297 293 289 284 282 282
312 314 315 316 316 318 321 323 324 324 324 324 325 328 328 329 328 327 326 326 325 324 324 323 324 324 325 324 322 318 315 314 312 310 305 300 301 299 295 290 286 284 283
309 311 313 315 314 315 318 320 322 323 323 322 323 325 326 327 327 326 327 327 326 325 324 325 325 324 324 323 320 317 316 314 314 313 310 306 303 301 299 295 291 288 285
306 309 311 312 311 312 314 316 319 320 320 319 320 322 323 324 325 325 325 325 326 326 325 326 325 323 322 322 321 320 320 318 316 315 313 312 309 306 303 301 296 291 288
304 306 309 310 308 309 311 314 316 317 318 317 316 317 318 319 321 323 324 324 324 325 325 325 324 324 326 326 325 324 325 324 323 321 319 316 314 310 306 303 298 293 292
301 304 307 308 309 309 308 311 314 315 316 316 314 314 314 316 319 320 321 322 323 323 325 327 327 325 327 328 328 328 325 324 323 322 321 318 316 312 308 305 302 299 294
299 301 303 305 306 307 307 308 312 314 316 316 315 314 314 315 318 320 321 322 323 323 323 325 326 326 325 326 327 327 326 325 324 321 319 317 315 312 310 307 304 302 298
295 297 299 303 304 305 306 307 310 313 315 314 314 313 313 313 314 316 318 318 319 319 319 320 322 323 324 324 324 324 324 324 323 322 318 315 315 313 311 309 306 302 299
Height
5833 5831 5828 5826 5824 5822 5819 5817 5815 5813 5811 5809 5808 5806 5805 5804 5803 5801 5800 5799 5798 5797 5796 5795 5794 5794 5793 5793 5793 5792 5792 5792 5792 5793 5794 5795 5796 5797 5797 5798 5800 5801 5803
5831 5829 5826 5823 5821 5819 5816 5814 5812 5810 5808 5806 5804 5802 5801 5800 5798 5797 5796 5794 5793 5792 5791 5790 5789 5788 5788 5787 5787 5786 5785 5785 5786 5786 5787 5788 5790 5790 5790 5791 5792 5794 5796
5829 5827 5824 5821 5818 5816 5813 5811 5808 5806 5804 5802 5800 5798 5797 5796 5794 5793 5791 5790 5788 5787 5786 5785 5784 5783 5782 5781 5780 5779 5779 5779 5779 5779 5780 5781 5782 5783 5784 5784 5785 5787 5789
5827 5824 5821 5818 5816 5813 5810 5807 5805 5802 5800 5797 5796 5794 5792 5791 5790 5788 5787 5785 5783 5782 5780 5779 5778 5777 5775 5774 5773 5773 5772 5772 5772 5772 5773 5774 5775 5776 5777 5778 5779 5780 5782
5825 5822 5819 5816 5813 5810 5808 5805 5802 5799 5796 5794 5792 5790 5788 5787 5785 5783 5782 5780 5778 5776 5775 5773 5772 5771 5769 5768 5767 5766 5765 5764 5765 5765 5765 5766 5767 5768 5769 5771 5772 5773 5774
5823 5820 5817 5813 5810 5808 5805 5802 5799 5796 5793 5790 5788 5786 5784 5782 5780 5778 5776 5775 5773 5771 5769 5768 5766 5764 5763 5761 5760 5759 5758 5757 5757 5757 5758 5758 5760 5761 5762 5763 5764 5765 5766
5820 5818 5815 5811 5808 5805 5802 5799 5796 5793 5790 5787 5784 5782 5779 5777 5775 5773 5771 5769 5767 5765 5764 5762 5760 5758 5756 5755 5753 5752 5751 5750 5750 5750 5750 5751 5752 5753 5754 5755 5756 5757 5759
5817 5815 5812 5809 5806 5803 5800 5796 5793 5790 5786 5784 5781 5778 5776 5773 5771 5769 5767 5764 5762 5760 5758 5756 5754 5752 5750 5748 5746 5744 5744 5743 5742 5743 5743 5743 5744 5745 5746 5747 5748 5749 5751
5815 5813 5809 5806 5803 5800 5797 5794 5790 5787 5784 5781 5778 5775 5772 5769 5766 5764 5762 5759 5757 5755 5752 5750 5748 5745 5743 5741 5739 5738 5737 5736 5735 5735 5735 5736 5737 5737 5738 5739 5740 5741 5743
5813 5810 5807 5804 5801 5798 5795 5792 5788 5785 5781 5778 5775 5772 5768 5765 5763 5760 5758 5755 5752 5749 5747 5744 5742 5739 5737 5735 5733 5731 5729 5728 5728 5727 5727 5728 5729 5730 5731 5731 5732 5732 5734
5810 5807 5804 5801 5798 5795 5792 5789 5786 5782 5779 5775 5772 5768 5765 5762 5759 5756 5754 5751 5748 5745 5742 5740 5737 5735 5732 5729 5727 5725 5723 5721 5721 5720 5719 5720 5721 5722 5723 5723 5724 5724 5725
5808 5805 5802 5799 5795 5792 5789 5786 5783 5779 5776 5772 5768 5764 5761 5758 5755 5752 5749 5746 5743 5741 5738 5735 5733 5730 5727 5724 5722 5719 5717 5715 5714 5713 5712 5713 5713 5714 5715 5715 5716 5717 5717
5806 5803 5799 5796 5793 5790 5786 5783 5779 5776 5772 5768 5764 5761 5758 5755 5751 5748 5745 5742 5739 5737 5734 5731 5728 5725 5723 5720 5717 5714 5712 5710 5709 5707 5706 5706 5706 5707 5707 5708 5708 5709 5709
5803 5800 5797 5793 5790 5787 5783 5780 5776 5772 5769 5765 5761 5758 5754 5751 5748 5744 5741 5739 5736 5733 5730 5727 5724 5721 5719 5716 5713 5710 5707 5705 5704 5702 5701 5700 5700 5700 5700 5700 5701 5701 5701
5800 5797 5794 5791 5788 5784 5780 5777 5773 5769 5766 5762 5758 5755 5751 5748 5745 5742 5738 5736 5733 5730 5727 5724 5721 5718 5715 5712 5709 5706 5703 5701 5699 5697 5696 5695 5694 5694 5694 5693 5693 5693 5694
5797 5794 5791 5788 5785 5781 5778 5774 5771 5767 5763 5759 5756 5752 5749 5745 5742 5739 5736 5733 5730 5727 5724 5721 5718 5714 5711 5708 5705 5702 5699 5697 5695 5693 5691 5689 5688 5688 5687 5686 5686 5686 5686
5794 5791 5788 5785 5782 5779 5775 5772 5768 5764 5761 5757 5754 5750 5746 5743 5739 5736 5733 5730 5727 5724 5721 5718 5714 5711 5707 5703 5700 5698 5695 5693 5691 5688 5687 5685 5683 5682 5681 5680 5679 5679 5678
5791 5788 5785 5782 5779 5776 5773 5769 5766 5762 5758 5755 5751 5747 5744 5740 5737 5733 5730 5727 5724 5721 5718 5714 5711 5707 5703 5699 5696 5694 5691 5688 5686 5684 5682 5680 5678 5676 5674 5673 5672 5671 5670
5787 5785 5782 5779 5776 5773 5770 5766 5763 5759 5756 5752 5749 5745 5741 5738 5734 5731 5727 5724 5721 5718 5714 5711 5707 5703 5699 5696 5692 5689 5687 5684 5682 5679 5677 5675 5673 5671 5669 5667 5665 5665 5664
5784 5781 5779 5776 5773 5770 5767 5763 5760 5756 5753 5749 5746 5742 5739 5735 5732 5728 5725 5721 5718 5714 5711 5707 5704 5700 5696 5692 5689 5685 5683 5680 5677 5675 5672 5669 5667 5665 5663 5661 5659 5658 5657
5780 5778 5775 5772 5769 5766 5763 5760 5757 5753 5750 5746 5743 5740 5736 5732 5729 5725 5722 5718 5715 5711 5708 5704 5700 5696 5692 5689 5685 5682 5679 5675 5672 5670 5667 5664 5662 5659 5657 5655 5653 5652 5651
5776 5774 5771 5768 5765 5762 5759 5756 5753 5750 5747 5743 5740 5737 5733 5729 5726 5722 5719 5715 5711 5707 5703 5699 5696 5692 5689 5685 5681 5678 5674 5671 5668 5665 5662 5659 5657 5654 5652 5650 5648 5646 5645
5771 5769 5767 5764 5761 5758 5755 5752 5749 5746 5743 5740 5736 5733 5729 5726 5722 5719 5715 5712 5708 5704 5700 5696 5692 5689 5685 5681 5678 5674 5671 5667 5664 5661 5658 5655 5652 5650 5647 5645 5642 5640 5639
5766 5764 5762 5759 5756 5754 5751 5748 5745 5742 5739 5736 5732 5729 5726 5722 5719 5715 5712 5708 5704 5701 5697 5693 5689 5685 5682 5678 5675 5671 5668 5664 5660 5657 5654 5651 5648 5645 5642 5639 5637 5634 5632
5761 5759 5757 5754 5751 5749 5746 5743 5740 5738 5735 5731 5728 5725 5721 5718 5715 5711 5708 5704 5701 5696 5693 5689 5686 5682 5679 5675 5671 5668 5664 5660 5656 5653 5650 5647 5644 5640 5637 5634 5632 5629 5627
5755 5753 5751 5748 5746 5743 5741 5738 5735 5733 5730 5727 5723 5720 5717 5714 5710 5707 5704 5700 5697 5693 5689 5685 5682 5678 5675 5671 5668 5664 5660 5656 5652 5649 5645 5642 5639 5635 5632 5629 5626 5623 5621